Regional Weather Roundup
Issued by NWS Burlington, VT

Current Version | Previous Version | Text Only | Print | Product List | Glossary Off
Versions: 1 2 3 4 5 6 7 8 9 10 11 12 13 14 15 16 17 18 19 20 21 22 23 24 25 26 27 28 29 30 31 32 33 34 35 36 37 38 39 40 41 42 43 44 45 46 47 48 49 50

000
ASUS41 KBTV 250210
RWRBTV
VERMONT REGIONAL WEATHER ROUNDUP
NATIONAL WEATHER SERVICE BURLINGTON VT
1000 PM EDT FRI APR 24 2015

NOTE: "FAIR" INDICATES FEW OR NO CLOUDS BELOW 12,000 FEET WITH NO
SIGNIFICANT WEATHER AND/OR OBSTRUCTIONS TO VISIBILITY.

* THESE REPORTS ARE NOT UNDER NWS QUALITY CONTROL AND/OR DO NOT
  REPORT WEATHER SUCH AS PRECIPITATION AND FOG.

VTZ001>019-250300-
_____VERMONT_____


CITY           SKY/WX    TMP DP  RH WIND       PRES   REMARKS
BURLINGTON     CLOUDY    38  20  48 NW12      29.85F
MONTPELIER     CLOUDY    32  22  66 VRB7      29.84S
MORRISVILLE    CLOUDY    34  20  56 VRB6      29.83R
ST. JOHNSBURY*   N/A     35  23  61 MISG      29.78S
LYNDONVILLE*   CLOUDY    32  22  67 W7        29.79S
MIDDLEBURY*    CLOUDY    36  23  58 N3        29.85S
RUTLAND*       CLOUDY   N/A N/A N/A W12       29.83S
SPRINGFIELD    CLOUDY    37  21  52 W10       29.83S
HIGHGATE*      CLOUDY    35  22  59 NW10G18   29.85S
NEWPORT*       CLOUDY    32  22  67 NW8       29.80S
BENNINGTON     CLOUDY    36  20  52 W14G22    29.86S
SUTTON*          N/A     30 N/A N/A MISG        N/A

_____LAKE CHAMPLAIN_____


CITY           SKY/WX    TMP DP  RH WIND       PRES   REMARKS

$$

NYZ007-026>031-035-052-083-250300-
_____NORTHERN NEW YORK_____


CITY           SKY/WX    TMP DP  RH WIND       PRES   REMARKS
PLATTSBURGH    CLOUDY    38  20  48 NW7       29.86S
SARANAC LAKE   CLOUDY    31  19  61 VRB7      29.82S
MASSENA        CLOUDY    37  22  54 W8        29.91S
OGDENSBURG*    CLOUDY    37  21  52 NW8       29.93R
POTSDAM*       CLOUDY    37  23  56 NW7       29.91S
WATERTOWN      CLOUDY    39  26  59 W10       29.94R
FT DRUM        CLOUDY    36  27  70 NW2       29.91R
ALBANY         CLOUDY    38  20  48 NW15      29.93R
GLENS FALLS    CLOUDY    38  21  50 W7        29.88S

$$
NHZ002-005-011-250300-
_____NEW HAMPSHIRE_____


CITY           SKY/WX    TMP DP  RH WIND       PRES   REMARKS
LEBANON        CLOUDY    38  21  50 NW7       29.81S
KEENE          CLOUDY    39  19  45 NW12G18   29.83R
MT WASHINGTON  SNOW      10  10 100 NW46G60     N/A  VSB 0   WCI -16
PLYMOUTH       CLOUDY    36  27  69 NW3       29.79S
WHITEFIELD     CLOUDY    33  23  66 VRB5      29.77S

$$

_____REGIONAL QUEBEC LOCATIONS_____


CITY           SKY/WX    TMP DP  RH WIND       PRES   REMARKS
MONTREAL       FLURRIES  36  21  55 W12G21    29.86S
QUEBEC CITY    CLOUDY    36  28  75 SW15      29.68F
SHERBROOKE     LGT SNOW  30  28  93 W12G17    29.76S

_____REGIONAL ONTARIO LOCATIONS_____


CITY           SKY/WX    TMP DP  RH WIND       PRES   REMARKS
OTTAWA         MOCLDY    36  19  51 NW12G18   29.91S

______KEY______
VSB  - VISIBILITY IN MILES
WCI  - WIND CHILL INDEX
HX   - HEAT INDEX
$$



USA.gov is the U.S. government's official web portal to all federal, state and local government web resources and services.